Location: Kikino
(54.4440°N, 112.0940°W)
Time: 11:58:10
(UTC+00:00)

Vanguard 3 - Pass Details

Date: 22 May 2024
Orbit: 509 x 3231 km, 33.3° (Epoch: 16 June)

Event Time Altitude Azimuth Distance (km) Brightness Sun altitude
Rises 07:01:55 0° 261° (W) 5,690 11.4 -14.9°
Reaches altitude 10° 07:06:16 10° 249° (WSW) 5,073 11.0 -14.9°
Maximum altitude 07:17:34 25° 203° (SSW) 4,662 10.5 -15.0°
Enters shadow 07:27:42 16° 166° (SSE) 5,649 10.8 -15.0°
